User: anonymous   Login
Location: Starry Hill Observatory
(46.8582°N, 122.3590°W)
Time: 01:03:27
(UTC-08:00)
Language:

Cosmos 1300 Rocket - Orbit

View from above orbital plane
View from above orbital plane
View from above satellite
View from above satellite

Ground track
Ground track

The orbit data is extracted from the following two-line orbital elements,

1 12786U 81082B   17055.51411928  .00000135  00000-0  13185-4 0  9993
2 12786  82.4860  73.9007 0016012 266.6835  93.2548 14.84667969918094
Epoch (UTC): 24 February 2017 12:20:19
Eccentricity: 0.0016012
inclination: 82.4860°
perigee height: 603 km
apogee height: 626 km
right ascension of ascending node: 73.9007°
argument of perigee: 266.6835°
revolutions per day: 14.84667969
mean anomaly at epoch: 93.2548°
orbit number at epoch: 91809

The dashed part of the orbit path shows where the satellite is in the earth's shadow,  

DLR